Date String (YYYY-MM-DD hh:mm:ss) UTC,Instrument flags,Ambient pressure (hPa),Sample flow (lpm),Bypass flow (lpm),Sample temperature (°C),Ambient temperature (°C),ASC tube jacket temperature (°C),LED temperature (°C),Box temperature (°C),Sample RH (%),Span deviation,Mass concentration (μg/m³),Mass concentration (μg/m³),Mass concentration (μg/m³)
DateTimeUTC,F1_M11,P_M11,Q1_M11,Q2_M11,T1_M11,T2_M11,T3_M11,T4_M11,T5_M11,U1_M11,ZSPAN_M11,X2_M11,X0_M11,X1_M11
2021-12-01 13:00:00,,0827.5,5.01,0.00,26.3,25.4,00.0,35.2,28.0,10.3,0000.0,0001.42,0005.09,0000.80
2021-12-01 13:01:00,,0827.6,4.98,0.00,26.2,25.3,00.0,35.2,28.0,10.4,0000.0,0001.37,0005.83,0000.74
2021-12-01 13:02:00,,0827.7,5.01,0.00,26.2,25.3,00.0,35.2,28.0,10.4,0000.0,0001.36,0004.73,0000.71
2021-12-01 13:03:00,,0827.7,4.98,0.00,26.2,25.3,00.0,35.2,28.0,10.5,0000.0,0001.53,0005.15,0000.80
2021-12-01 13:04:00,,0827.8,5.01,0.00,26.2,25.3,00.0,35.2,28.0,10.5,0000.0,0001.73,0005.77,0000.91
2021-12-01 13:05:00,,0827.7,5.00,0.00,26.2,25.3,00.0,35.2,28.0,10.5,0000.0,0001.89,0006.68,0001.00
2021-12-01 13:06:00,,0827.7,4.99,0.00,26.2,25.3,00.0,35.2,28.0,10.5,0000.0,0002.06,0006.82,0001.09
2021-12-01 13:07:00,,0827.7,5.01,0.00,26.2,25.3,00.0,35.2,28.0,10.5,0000.0,0002.17,0007.04,0001.15
2021-12-01 13:08:00,,0827.7,4.99,0.00,26.2,25.3,00.0,35.2,28.1,10.4,0000.0,0002.29,0007.32,0001.23
2021-12-01 13:09:00,,0827.7,5.01,0.00,26.2,25.3,00.0,35.2,28.1,10.4,0000.0,0002.46,0008.13,0001.32
2021-12-01 13:10:00,,0827.7,5.00,0.00,26.3,25.3,00.0,35.2,28.0,10.4,0000.0,0002.57,0008.55,0001.38
2021-12-01 13:11:00,,0827.7,5.01,0.00,26.3,25.4,00.0,35.2,28.0,10.5,0000.0,0002.52,0008.41,0001.39
2021-12-01 13:12:00,,0827.7,5.00,0.00,26.3,25.3,00.0,35.2,28.0,10.6,0000.0,0002.49,0007.90,0001.38
2021-12-01 13:13:00,,0827.7,5.00,0.00,26.3,25.3,00.0,35.2,28.0,10.6,0000.0,0002.46,0007.63,0001.37
2021-12-01 13:14:00,,0827.8,4.99,0.00,26.3,25.3,00.0,35.2,28.0,10.7,0000.0,0002.32,0007.73,0001.28
2021-12-01 13:15:00,,0827.7,5.01,0.00,26.2,25.3,00.0,35.2,28.1,10.7,0000.0,0002.05,0007.65,0001.15
2021-12-01 13:16:00,,0827.7,4.98,0.00,26.2,25.3,00.0,35.2,28.1,10.8,0000.0,0001.89,0007.48,0001.04
2021-12-01 13:17:00,,0827.7,5.00,0.00,26.2,25.3,00.0,35.2,28.1,10.9,0000.0,0001.69,0006.99,0000.93
2021-12-01 13:18:00,,0827.9,5.00,0.00,26.2,25.3,00.0,35.2,28.0,10.9,0000.0,0001.50,0006.58,0000.83
2021-12-01 13:19:00,,0827.9,5.00,0.00,26.2,25.3,00.0,35.2,28.0,10.9,0000.0,0001.36,0006.20,0000.76
2021-12-01 13:20:00,,0827.9,5.00,0.00,26.2,25.2,00.0,35.2,27.9,11.0,0000.0,0001.20,0005.12,0000.66
2021-12-01 13:21:00,,0827.9,4.99,0.00,26.1,25.2,00.0,35.2,27.9,11.1,0000.0,0001.05,0004.03,0000.59
2021-12-01 13:22:00,,0827.9,5.01,0.00,26.1,25.2,00.0,35.2,27.9,10.9,0000.0,0001.03,0005.28,0000.56
2021-12-01 13:23:00,,0828.0,4.98,0.00,26.1,25.2,00.0,35.1,27.9,10.6,0000.0,0001.17,0006.17,0000.61
2021-12-01 13:24:00,,0827.9,5.02,0.00,26.1,25.2,00.0,35.1,27.9,10.8,0000.0,0001.31,0006.87,0000.64
2021-12-01 13:25:00,,0827.8,4.98,0.00,26.1,25.2,00.0,35.1,27.9,10.9,0000.0,0001.30,0007.20,0000.65
2021-12-01 13:26:00,,0827.8,5.00,0.00,26.1,25.2,00.0,35.1,27.9,10.8,0000.0,0001.26,0006.93,0000.65
2021-12-01 13:27:00,,0827.8,4.99,0.00,26.1,25.2,00.0,35.1,27.9,10.8,0000.0,0001.29,0006.68,0000.66
2021-12-01 13:28:00,,0827.9,5.00,0.00,26.1,25.2,00.0,35.1,27.9,10.8,0000.0,0001.30,0006.69,0000.67
2021-12-01 13:29:00,,0827.9,5.01,0.00,26.1,25.2,00.0,35.1,27.9,10.8,0000.0,0001.37,0006.86,0000.70
2021-12-01 13:30:00,,0828.0,4.99,0.00,26.1,25.2,00.0,35.1,27.9,10.9,0000.0,0001.39,0007.61,0000.73
2021-12-01 13:31:00,,0827.9,5.00,0.00,26.1,25.2,00.0,35.1,27.9,10.9,0000.0,0001.43,0007.79,0000.75
2021-12-01 13:32:00,,0827.9,5.01,0.00,26.1,25.2,00.0,35.1,27.9,10.5,0000.0,0001.52,0008.76,0000.78
2021-12-01 13:33:00,,0827.9,4.99,0.00,26.1,25.2,00.0,35.1,27.9,10.7,0000.0,0001.59,0008.28,0000.80
2021-12-01 13:34:00,,0827.9,5.01,0.00,26.1,25.2,00.0,35.1,27.9,10.9,0000.0,0001.49,0007.96,0000.73
2021-12-01 13:35:00,,0827.9,4.99,0.00,26.1,25.2,00.0,35.1,27.9,10.8,0000.0,0001.35,0007.95,0000.69
2021-12-01 13:36:00,,0828.0,5.01,0.00,26.1,25.2,00.0,35.1,27.9,10.7,0000.0,0001.39,0007.68,0000.72
2021-12-01 13:37:00,,0828.0,4.99,0.00,26.1,25.2,00.0,35.1,27.9,10.7,0000.0,0001.60,0007.79,0000.82
2021-12-01 13:38:00,,0828.0,5.00,0.00,26.1,25.2,00.0,35.1,27.9,10.6,0000.0,0001.77,0007.86,0000.93
2021-12-01 13:39:00,,0827.9,5.00,0.00,26.1,25.2,00.0,35.1,27.9,10.5,0000.0,0001.93,0008.09,0001.02
2021-12-01 13:40:00,,0828.0,5.00,0.00,26.1,25.2,00.0,35.1,27.9,10.5,0000.0,0002.07,0008.42,0001.08
2021-12-01 13:41:00,,0828.0,5.00,0.00,26.1,25.2,00.0,35.1,27.9,10.6,0000.0,0002.10,0007.97,0001.08
2021-12-01 13:42:00,,0828.1,5.01,0.00,26.1,25.2,00.0,35.1,27.9,10.6,0000.0,0002.08,0007.80,0001.08
2021-12-01 13:43:00,,0828.1,5.00,0.00,26.1,25.2,00.0,35.1,27.9,10.6,0000.0,0002.03,0006.53,0001.07
2021-12-01 13:44:00,,0828.1,5.00,0.00,26.1,25.2,00.0,35.1,27.9,10.6,0000.0,0001.95,0006.06,0001.06
2021-12-01 13:45:00,,0828.1,5.00,0.00,26.1,25.2,00.0,35.1,27.9,10.7,0000.0,0001.95,0006.06,0001.10
2021-12-01 13:46:00,,0828.1,5.01,0.00,26.1,25.2,00.0,35.1,27.9,11.0,0000.0,0002.30,0006.91,0001.30
2021-12-01 13:47:00,,0828.1,5.00,0.00,26.1,25.2,00.0,35.1,27.9,10.8,0000.0,0002.60,0007.95,0001.47
2021-12-01 13:48:00,,0828.2,4.99,0.00,26.1,25.2,00.0,35.1,27.9,10.9,0000.0,0002.72,0008.67,0001.55
2021-12-01 13:49:00,,0828.1,5.00,0.00,26.1,25.2,00.0,35.1,27.9,10.9,0000.0,0002.78,0009.33,0001.64
2021-12-01 13:50:00,,0828.1,5.01,0.00,26.1,25.3,00.0,35.1,27.9,10.8,0000.0,0002.90,0009.60,0001.74
2021-12-01 13:51:00,,0828.0,4.99,0.00,26.1,25.3,00.0,35.1,27.9,10.7,0000.0,0003.09,0010.28,0001.87
2021-12-01 13:52:00,,0828.1,5.01,0.00,26.1,25.2,00.0,35.1,27.9,10.5,0000.0,0003.24,0011.28,0002.01
2021-12-01 13:53:00,,0828.2,5.01,0.00,26.1,25.2,00.0,35.1,27.9,10.6,0000.0,0003.40,0011.75,0002.16
2021-12-01 13:54:00,,0828.1,4.98,0.00,26.1,25.2,00.0,35.1,28.0,11.3,0000.0,0003.67,0012.90,0002.46
2021-12-01 13:55:00,,0828.2,5.02,0.00,26.1,25.2,00.0,35.1,27.9,10.5,0000.0,0003.85,0013.63,0002.65
2021-12-01 13:56:00,,0828.2,4.99,0.00,26.1,25.2,00.0,35.1,27.9,10.4,0000.0,0003.95,0013.87,0002.76
2021-12-01 13:57:00,,0828.2,5.00,0.00,26.2,25.2,00.0,35.1,28.0,10.5,0000.0,0003.90,0013.26,0002.71
2021-12-01 13:58:00,,0828.2,5.00,0.00,26.2,25.2,00.0,35.1,28.0,10.5,0000.0,0003.90,0012.89,0002.67
2021-12-01 13:59:00,,0828.2,5.00,0.00,26.2,25.2,00.0,35.1,28.0,10.4,0000.0,0003.92,0012.36,0002.64
